User: anonymous   Login
Location: Unspecified
(0.0000°N, 0.0000°E)
Time: 21:21:16
(UTC+00:00)
Language:

BEIDOU 3M4 - Orbit

View from above orbital plane
View from above orbital plane
View from above satellite
View from above satellite

Ground track
Ground track

The orbit is defined by the following mean orbital elements,

1 43108U          26143.59550955 +.00000000 +00000-0 +00000-0 0 00008
2 43108  54.3440 303.1537 0002126 272.4030  87.5525  1.86230755    08
Epoch (UTC): 23 May 2026 14:17:32
Eccentricity: 0.0002126
inclination: 54.3440°
perigee height: 21522 km
apogee height: 21534 km
right ascension of ascending node: 303.1537°
argument of perigee: 272.4030°
revolutions per day: 1.86230755
mean anomaly at epoch: 87.5525°

The dashed part of the orbit path shows where the satellite is in the earth's shadow,  

DLR